Time,TemperatureF,DewpointF,PressureIn,WindDirection,WindDirectionDegrees,WindSpeedMPH,WindSpeedGustMPH,Humidity,HourlyPrecipIn,Conditions,Clouds,dailyrainin,SoftwareType,DateUTC
2013-05-26 00:09:00,42.3,41.0,29.89,NNW,342,5.0,10.0,96,0.16,,,2.10,weatherlink.com 1.10,2013-05-26 04:09:00,
2013-05-26 00:24:00,42.4,41.0,29.89,NNW,333,5.0,8.0,96,0.09,,,2.13,weatherlink.com 1.10,2013-05-26 04:24:00,
2013-05-26 00:39:00,42.5,42.0,29.89,North,359,4.0,8.0,97,0.09,,,2.17,weatherlink.com 1.10,2013-05-26 04:39:00,
2013-05-26 00:54:00,42.7,42.0,29.88,NNW,344,3.0,7.0,96,0.11,,,0.02,weatherlink.com 1.10,2013-05-26 04:54:00,
2013-05-26 01:09:00,42.7,42.0,29.88,NNW,346,3.0,8.0,97,0.17,,,0.09,weatherlink.com 1.10,2013-05-26 05:09:00,
2013-05-26 01:24:00,42.6,42.0,29.87,North,354,2.0,8.0,97,0.20,,,0.15,weatherlink.com 1.10,2013-05-26 05:24:00,
2013-05-26 01:40:00,42.5,42.0,29.87,NNE,14,4.0,10.0,97,0.23,,,0.22,weatherlink.com 1.10,2013-05-26 05:40:00,
2013-05-26 01:55:00,42.3,42.0,29.87,ESE,122,4.0,8.0,97,0.27,,,0.30,weatherlink.com 1.10,2013-05-26 05:55:00,
2013-05-26 02:10:00,42.4,42.0,29.87,North,351,7.0,9.0,97,0.26,,,0.36,weatherlink.com 1.10,2013-05-26 06:10:00,
2013-05-26 02:25:00,42.3,42.0,29.87,North,2,7.0,11.0,97,0.26,,,0.41,weatherlink.com 1.10,2013-05-26 06:25:00,
2013-05-26 02:40:00,42.2,41.0,29.86,NW,322,1.0,9.0,97,0.24,,,0.46,weatherlink.com 1.10,2013-05-26 06:40:00,
2013-05-26 02:55:00,42.4,42.0,29.86,North,5,4.0,6.0,97,0.17,,,0.48,weatherlink.com 1.10,2013-05-26 06:55:00,
2013-05-26 03:10:00,42.4,42.0,29.85,West,265,2.0,6.0,97,0.13,,,0.50,weatherlink.com 1.10,2013-05-26 07:10:00,
2013-05-26 03:25:00,42.3,42.0,29.86,NNW,348,2.0,9.0,97,0.14,,,0.55,weatherlink.com 1.10,2013-05-26 07:25:00,
2013-05-26 03:40:00,42.2,41.0,29.85,WNW,289,2.0,8.0,97,0.14,,,0.61,weatherlink.com 1.10,2013-05-26 07:40:00,
2013-05-26 03:55:00,42.2,41.0,29.85,NNW,336,2.0,7.0,97,0.16,,,0.65,weatherlink.com 1.10,2013-05-26 07:55:00,
2013-05-26 04:10:00,42.3,42.0,29.86,NW,323,1.0,7.0,97,0.18,,,0.68,weatherlink.com 1.10,2013-05-26 08:10:00,
2013-05-26 04:25:00,42.3,42.0,29.85,WNW,298,3.0,6.0,97,0.14,,,0.70,weatherlink.com 1.10,2013-05-26 08:25:00,
2013-05-26 04:40:00,42.5,42.0,29.85,NW,323,2.0,8.0,97,0.10,,,0.71,weatherlink.com 1.10,2013-05-26 08:40:00,
2013-05-26 04:55:00,42.6,42.0,29.86,NNE,14,3.0,9.0,97,0.07,,,0.72,weatherlink.com 1.10,2013-05-26 08:55:00,
2013-05-26 05:10:00,42.6,42.0,29.86,NE,44,3.0,6.0,97,0.05,,,0.73,weatherlink.com 1.10,2013-05-26 09:10:00,
2013-05-26 05:25:00,42.7,42.0,29.86,North,350,4.0,8.0,96,0.03,,,0.73,weatherlink.com 1.10,2013-05-26 09:25:00,
2013-05-26 05:40:00,42.6,42.0,29.86,NNW,335,2.0,8.0,96,0.06,,,0.77,weatherlink.com 1.10,2013-05-26 09:40:00,
2013-05-26 05:55:00,42.7,42.0,29.87,NW,305,2.0,7.0,96,0.06,,,0.78,weatherlink.com 1.10,2013-05-26 09:55:00,
2013-05-26 06:10:00,42.7,42.0,29.87,NNE,17,8.0,8.0,96,0.05,,,0.78,weatherlink.com 1.10,2013-05-26 10:10:00,
2013-05-26 06:25:00,42.8,42.0,29.87,NNW,340,4.0,7.0,96,0.05,,,0.78,weatherlink.com 1.10,2013-05-26 10:25:00,
2013-05-26 06:40:00,42.8,42.0,29.88,North,350,4.0,7.0,96,0.02,,,0.79,weatherlink.com 1.10,2013-05-26 10:40:00,
2013-05-26 06:55:00,42.9,42.0,29.88,NW,309,4.0,8.0,95,0.01,,,0.79,weatherlink.com 1.10,2013-05-26 10:55:00,
2013-05-26 07:10:00,42.9,42.0,29.88,NNW,328,3.0,8.0,95,0.01,,,0.79,weatherlink.com 1.10,2013-05-26 11:10:00,
2013-05-26 07:25:00,43.2,42.0,29.89,North,350,6.0,8.0,94,0.01,,,0.79,weatherlink.com 1.10,2013-05-26 11:25:00,
2013-05-26 07:40:00,43.2,42.0,29.89,North,5,1.0,8.0,94,0.00,,,0.79,weatherlink.com 1.10,2013-05-26 11:40:00,
2013-05-26 07:55:00,43.1,42.0,29.90,NNW,345,2.0,7.0,94,0.00,,,0.79,weatherlink.com 1.10,2013-05-26 11:55:00,
2013-05-26 08:10:00,43.3,42.0,29.90,NW,312,3.0,8.0,93,0.00,,,0.79,weatherlink.com 1.10,2013-05-26 12:10:00,
2013-05-26 08:25:00,43.1,41.0,29.91,NNW,344,3.0,10.0,93,0.01,,,0.80,weatherlink.com 1.10,2013-05-26 12:25:00,
2013-05-26 08:40:00,42.7,41.0,29.92,NW,319,6.0,8.0,93,0.02,,,0.81,weatherlink.com 1.10,2013-05-26 12:40:00,
2013-05-26 08:55:00,42.3,40.0,29.92,NE,34,3.0,8.0,92,0.03,,,0.82,weatherlink.com 1.10,2013-05-26 12:55:00,
2013-05-26 09:25:00,43.0,41.0,29.93,West,279,1.0,5.0,93,0.03,,,0.83,weatherlink.com 1.10,2013-05-26 13:25:00,
2013-05-26 09:40:00,43.1,41.0,29.93,NE,50,4.0,7.0,92,0.02,,,0.83,weatherlink.com 1.10,2013-05-26 13:40:00,
2013-05-26 09:55:00,43.5,41.0,29.94,NW,304,1.0,6.0,92,0.01,,,0.83,weatherlink.com 1.10,2013-05-26 13:55:00,
2013-05-26 10:10:00,43.9,42.0,29.93,West,276,2.0,7.0,92,0.01,,,0.83,weatherlink.com 1.10,2013-05-26 14:10:00,
2013-05-26 10:25:00,44.8,42.0,29.93,NNW,331,2.0,8.0,90,0.00,,,0.83,weatherlink.com 1.10,2013-05-26 14:25:00,
2013-05-26 10:40:00,45.7,42.0,29.93,NW,309,2.0,7.0,88,0.00,,,0.83,weatherlink.com 1.10,2013-05-26 14:40:00,
2013-05-26 10:55:00,45.7,42.0,29.93,NW,313,2.0,7.0,87,0.00,,,0.83,weatherlink.com 1.10,2013-05-26 14:55:00,
2013-05-26 11:10:00,46.0,42.0,29.94,North,354,2.0,11.0,86,0.00,,,0.83,weatherlink.com 1.10,2013-05-26 15:10:00,
2013-05-26 11:25:00,46.2,42.0,29.94,NNW,338,1.0,7.0,86,0.00,,,0.83,weatherlink.com 1.10,2013-05-26 15:25:00,
2013-05-26 11:40:00,46.5,43.0,29.94,NNW,328,2.0,9.0,88,0.00,,,0.83,weatherlink.com 1.10,2013-05-26 15:40:00,
2013-05-26 11:55:00,46.1,43.0,29.95,NW,308,3.0,11.0,87,0.01,,,0.84,weatherlink.com 1.10,2013-05-26 15:55:00,
2013-05-26 12:10:00,46.4,43.0,29.96,North,10,3.0,9.0,87,0.01,,,0.84,weatherlink.com 1.10,2013-05-26 16:10:00,
2013-05-26 12:25:00,46.5,42.0,29.96,NNW,347,1.0,12.0,85,0.01,,,0.84,weatherlink.com 1.10,2013-05-26 16:25:00,
2013-05-26 12:40:00,47.1,43.0,29.97,NW,306,2.0,9.0,86,0.01,,,0.84,weatherlink.com 1.10,2013-05-26 16:40:00,
2013-05-26 12:56:00,46.5,43.0,29.97,NW,315,3.0,8.0,88,0.00,,,0.84,weatherlink.com 1.10,2013-05-26 16:56:00,
2013-05-26 13:11:00,47.8,44.0,29.97,NW,317,0.0,9.0,85,0.00,,,0.84,weatherlink.com 1.10,2013-05-26 17:11:00,
2013-05-26 13:26:00,48.5,44.0,29.97,North,9,4.0,12.0,83,0.00,,,0.84,weatherlink.com 1.10,2013-05-26 17:26:00,
2013-05-26 13:41:00,47.1,44.0,29.97,NNW,328,1.0,8.0,88,0.01,,,0.85,weatherlink.com 1.10,2013-05-26 17:41:00,
2013-05-26 13:56:00,46.1,43.0,29.98,NNW,336,2.0,10.0,90,0.03,,,0.87,weatherlink.com 1.10,2013-05-26 17:56:00,
2013-05-26 14:11:00,47.5,46.0,29.98,North,360,3.0,6.0,93,0.03,,,0.87,weatherlink.com 1.10,2013-05-26 18:11:00,
2013-05-26 14:26:00,47.9,44.0,29.99,NW,324,1.0,6.0,86,0.03,,,0.87,weatherlink.com 1.10,2013-05-26 18:26:00,
2013-05-26 14:41:00,47.4,44.0,29.99,NNW,342,1.0,8.0,87,0.02,,,0.87,weatherlink.com 1.10,2013-05-26 18:41:00,
2013-05-26 14:56:00,46.9,44.0,30.00,NNW,331,1.0,6.0,89,0.01,,,0.88,weatherlink.com 1.10,2013-05-26 18:56:00,
2013-05-26 15:11:00,46.0,43.0,30.01,NNW,346,0.0,7.0,89,0.02,,,0.89,weatherlink.com 1.10,2013-05-26 19:11:00,
2013-05-26 15:26:00,46.0,44.0,30.01,SW,225,0.0,4.0,91,0.03,,,0.90,weatherlink.com 1.10,2013-05-26 19:26:00,
2013-05-26 15:41:00,46.1,44.0,30.02,NW,317,1.0,6.0,91,0.04,,,0.91,weatherlink.com 1.10,2013-05-26 19:41:00,
2013-05-26 15:56:00,46.5,44.0,30.02,NW,315,2.0,4.0,91,0.03,,,0.91,weatherlink.com 1.10,2013-05-26 19:56:00,
2013-05-26 16:11:00,46.9,44.0,30.02,North,6,4.0,8.0,90,0.02,,,0.91,weatherlink.com 1.10,2013-05-26 20:11:00,
2013-05-26 16:26:00,47.2,45.0,30.03,NW,326,0.0,4.0,91,0.01,,,0.91,weatherlink.com 1.10,2013-05-26 20:26:00,
2013-05-26 16:41:00,47.2,45.0,30.03,NW,304,0.0,3.0,91,0.03,,,0.94,weatherlink.com 1.10,2013-05-26 20:41:00,
2013-05-26 16:56:00,47.0,45.0,30.04,NNE,25,3.0,3.0,92,0.06,,,0.97,weatherlink.com 1.10,2013-05-26 20:56:00,
2013-05-26 17:11:00,47.3,45.0,30.04,NW,320,0.0,1.0,93,0.06,,,0.97,weatherlink.com 1.10,2013-05-26 21:11:00,
2013-05-26 17:26:00,47.1,45.0,30.05,NW,319,1.0,8.0,91,0.10,,,1.01,weatherlink.com 1.10,2013-05-26 21:26:00,
2013-05-26 17:41:00,46.8,45.0,30.06,NNW,327,0.0,2.0,92,0.06,,,1.01,weatherlink.com 1.10,2013-05-26 21:41:00,
2013-05-26 17:56:00,47.1,45.0,30.05,NNW,339,0.0,3.0,92,0.04,,,1.01,weatherlink.com 1.10,2013-05-26 21:56:00,
2013-05-26 18:11:00,47.7,46.0,30.06,NNW,328,0.0,2.0,92,0.04,,,1.01,weatherlink.com 1.10,2013-05-26 22:11:00,
2013-05-26 18:26:00,48.3,46.0,30.06,NNW,331,0.0,4.0,92,0.00,,,1.01,weatherlink.com 1.10,2013-05-26 22:26:00,
2013-05-26 18:41:00,48.9,46.0,30.07,NNW,334,0.0,2.0,91,0.00,,,1.01,weatherlink.com 1.10,2013-05-26 22:41:00,
2013-05-26 18:56:00,49.5,46.0,30.07,NW,309,0.0,1.0,89,0.00,,,1.01,weatherlink.com 1.10,2013-05-26 22:56:00,
2013-05-26 19:11:00,49.5,46.0,30.06,NW,309,0.0,0.0,88,0.00,,,1.01,weatherlink.com 1.10,2013-05-26 23:11:00,
2013-05-26 19:26:00,49.6,47.0,30.07,WNW,288,0.0,0.0,90,0.00,,,1.01,weatherlink.com 1.10,2013-05-26 23:26:00,
2013-05-26 19:41:00,49.1,46.0,30.07,WNW,288,0.0,0.0,88,0.00,,,1.01,weatherlink.com 1.10,2013-05-26 23:41:00,
2013-05-26 19:56:00,48.0,45.0,30.07,WNW,288,0.0,0.0,90,0.00,,,1.01,weatherlink.com 1.10,2013-05-26 23:56:00,
2013-05-26 20:11:00,47.1,45.0,30.06,WNW,288,0.0,0.0,93,0.00,,,1.01,weatherlink.com 1.10,2013-05-27 00:11:00,
2013-05-26 20:26:00,46.2,45.0,30.06,WNW,288,0.0,0.0,94,0.00,,,1.01,weatherlink.com 1.10,2013-05-27 00:26:00,
2013-05-26 20:41:00,45.2,44.0,30.06,WNW,288,0.0,0.0,95,0.00,,,1.01,weatherlink.com 1.10,2013-05-27 00:41:00,
2013-05-26 20:56:00,44.3,43.0,30.06,WNW,288,0.0,0.0,96,0.00,,,1.01,weatherlink.com 1.10,2013-05-27 00:56:00,
2013-05-26 21:12:00,43.3,42.0,30.06,WNW,288,0.0,0.0,96,0.00,,,1.01,weatherlink.com 1.10,2013-05-27 01:12:00,
2013-05-26 21:26:00,42.6,42.0,30.06,WNW,288,0.0,0.0,97,0.00,,,1.01,weatherlink.com 1.10,2013-05-27 01:26:00,
2013-05-26 21:41:00,41.6,41.0,30.07,WNW,288,0.0,0.0,97,0.00,,,1.01,weatherlink.com 1.10,2013-05-27 01:41:00,
2013-05-26 21:56:00,40.8,40.0,30.07,WNW,288,0.0,0.0,97,0.00,,,1.01,weatherlink.com 1.10,2013-05-27 01:56:00,
2013-05-26 22:11:00,40.0,39.0,30.07,WNW,288,0.0,0.0,97,0.00,,,1.01,weatherlink.com 1.10,2013-05-27 02:11:00,
2013-05-26 22:26:00,39.6,39.0,30.07,WNW,288,0.0,0.0,97,0.00,,,1.01,weatherlink.com 1.10,2013-05-27 02:26:00,
2013-05-26 22:41:00,39.2,39.0,30.08,WNW,288,0.0,0.0,98,0.00,,,1.01,weatherlink.com 1.10,2013-05-27 02:41:00,
2013-05-26 22:57:00,38.7,38.0,30.08,WNW,288,0.0,0.0,98,0.00,,,1.01,weatherlink.com 1.10,2013-05-27 02:57:00,
2013-05-26 23:12:00,38.7,38.0,30.08,WNW,288,0.0,0.0,98,0.00,,,1.01,weatherlink.com 1.10,2013-05-27 03:12:00,
2013-05-26 23:27:00,38.2,38.0,30.07,WNW,288,0.0,0.0,98,0.00,,,1.01,weatherlink.com 1.10,2013-05-27 03:27:00,
2013-05-26 23:42:00,38.2,38.0,30.07,WNW,288,0.0,0.0,98,0.00,,,1.01,weatherlink.com 1.10,2013-05-27 03:42:00,
2013-05-26 23:57:00,38.4,38.0,30.07,WNW,288,0.0,0.0,99,0.00,,,1.01,weatherlink.com 1.10,2013-05-27 03:57:00,